Location: Pel�-Koumbol�
(14.9505°N, 3.0798°W)
Time: 14:03:49
(UTC+00:00)

NOSS 3-3 (A) - Pass Details

Date: 17 February 2020
Orbit: 833 x 1379 km, 63.4° (Epoch: 27 March)

Event Time Altitude Azimuth Distance (km) Brightness Sun altitude
Rises 05:26:13 0° 200° (SSW) 3,375 6.7 -17.4°
Reaches altitude 10° 05:28:39 10° 198° (SSW) 2,432 6.0 -16.8°
Maximum altitude 05:34:10 75° 113° (ESE) 871 3.9 -15.5°
Drops below altitude 10° 05:39:57 10° 29° (NNE) 2,544 6.4 -14.1°
Sets 05:42:32 0° 27° (NNE) 3,542 7.2 -13.5°
